Zurück zum Katalog

STRV 1C

AktivWissenschaftGTO
NORAD 26610·PAYLOAD·🇬🇧 United Kingdom

Gestartet Nov 16, 2000 von Guiana Space Centre

Loading…

TLE

VeraltetSource: Space-Track

Epoche: Sep 13, 2026, 14:58 UTC

1 26610U 00072C   26256.62392863 -.00000354  00000-0  35483-2 0  9992
2 26610   7.1388 341.8150 7338428 236.9626  31.5271  2.03546809191899

Verfolge STRV 1C in Echtzeit mit AllMySat

Download on the App Store